Location: *
(45.9500°N, 9.0833°E)
Time: 20:36:29
(UTC+00:00)

Tiros 1 - Pass Details

Date: 22 June 2021
Orbit: 630 x 664 km, 48.4° (Epoch: 05 August)

Event Time Altitude Azimuth Distance (km) Brightness Sun altitude
Rises 08:40:26 0° 227° (SW) 2,907 10.3 49.9°
Reaches altitude 10° 08:42:48 10° 222° (SW) 2,005 9.6 50.3°
Maximum altitude 08:47:12 46° 149° (SSE) 851 9.2 51.0°
Drops below altitude 10° 08:51:40 10° 76° (ENE) 2,029 10.4 51.7°
Sets 08:54:04 0° 71° (ENE) 2,946 10.9 52.1°
